Terug naar catalogus

FENGYUN 1C DEB

ActiefSSO
NORAD 30543·DEBRIS·🇨🇳 China

Gelanceerd May 10, 1999 vanaf Taiyuan Satellite Launch Center

Loading…

Volgende Passages (komende 24 uur)

TLE

VersSource: Space-Track

Epoch: Sep 14, 2026, 12:38 UTC

1 30543U 99025AKH 26257.52670279  .00000044  00000-0  53911-4 0  9991
2 30543  98.8317 264.3052 0071588 343.1098 168.7015 14.03921283  3736

Volg FENGYUN 1C DEB in realtime met AllMySat

Download on the App Store